Flight Track Log - Related Links

Times and Time Zones

All times are in EDT time to prevent confusion due to time zone crossing. See the SWA256 flight status page for this flight to view local times or setup timezone preferences in your user account.

Time Position Orientation Groundspeed Altitude Reporting Facility
EDT Latitude Longitude Course Direction KTS MPH feet Rate Location/Type
Thu 11:51:39 PM 35.0436 -106.5792 154° Southeast 181 208 6,000  Level Albuquerque Center
Thu 11:52:15 PM 35.0197 -106.5647 154° Southeast 169 194 7,300 1,558 Climbing Albuquerque Center
Thu 11:52:56 PM 35.0131 -106.5972 256° West 205 236 8,000 1,748 Climbing Albuquerque Center
Thu 11:53:58 PM 35.0386 -106.6781 291° West 258 297 10,300 2,032 Climbing Albuquerque Center
Thu 11:55:00 PM 35.0692 -106.7808 290° West 329 379 12,200 2,537 Climbing Albuquerque Center
Thu 11:56:01 PM 35.1028 -106.9114 288° West 360 414 15,500 2,878 Climbing Albuquerque Center
Thu 11:57:03 PM 35.1247 -107.0275 283° West 357 411 18,100 2,565 Climbing Albuquerque Center
Thu 11:58:05 PM 35.1525 -107.1628 284° West 366 421 20,800 2,341 Climbing Albuquerque Center
Thu 11:59:06 PM 35.1794 -107.2964 284° West 382 440 22,900 1,951 Climbing Albuquerque Center
Fri 12:00:08 AM 35.2044 -107.4200 284° West 390 449 24,800 1,645 Climbing Albuquerque Center
Fri 12:01:10 AM 35.2269 -107.5517 282° West 411 473 26,300 1,561 Climbing Albuquerque Center
Fri 12:02:11 AM 35.2581 -107.7092 284° West 425 489 28,000 1,756 Climbing Albuquerque Center
Fri 12:03:13 AM 35.2839 -107.8469 283° West 431 496 29,900 1,645 Climbing Albuquerque Center
Fri 12:04:15 AM 35.3139 -108.0056 283° West 429 494 31,400 1,512 Climbing Albuquerque Center
Fri 12:05:16 AM 35.3403 -108.1439 283° West 433 498 33,000 1,902 Climbing Albuquerque Center
Fri 12:06:18 AM 35.3692 -108.2981 283° West 420 483 35,300 1,463 Climbing Albuquerque Center
Fri 12:07:19 AM 35.3936 -108.4278 283° West 410 472 36,000 341 Climbing Albuquerque Center
Fri 12:08:21 AM 35.4194 -108.5600 284° West 412 474 36,000  Level Albuquerque Center
Fri 12:09:22 AM 35.4481 -108.7178 283° West 418 481 36,000  Level Albuquerque Center
Fri 12:10:24 AM 35.4728 -108.8525 283° West 421 484 36,000  Level Albuquerque Center
Fri 12:11:25 AM 35.4825 -108.9908 275° West 423 487 36,000  Level Albuquerque Center
Fri 12:12:27 AM 35.4906 -109.1528 274° West 423 487 36,000  Level Albuquerque Center
Fri 12:13:28 AM 35.4986 -109.2922 274° West 426 490 36,000  Level Albuquerque Center
Fri 12:14:29 AM 35.5053 -109.4533 273° West 424 488 36,000  Level Albuquerque Center
Fri 12:15:31 AM 35.5108 -109.5908 273° West 421 484 36,000  Level Albuquerque Center
Fri 12:16:32 AM 35.5169 -109.7275 273° West 419 482 36,000  Level Albuquerque Center
Fri 12:17:33 AM 35.5222 -109.8878 272° West 420 483 36,000  Level Albuquerque Center
Fri 12:18:35 AM 35.5286 -110.0236 273° West 418 481 36,000  Level Albuquerque Center
Fri 12:19:36 AM 35.5342 -110.1611 273° West 419 482 36,000  Level Albuquerque Center
Fri 12:20:37 AM 35.5389 -110.3208 272° West 420 483 36,000  Level Albuquerque Center
Fri 12:21:39 AM 35.5436 -110.4578 272° West 421 484 36,000 -293 Level Albuquerque Center
Fri 12:22:40 AM 35.5492 -110.6186 272° West 421 484 35,400 -738 Descending Albuquerque Center
Fri 12:23:41 AM 35.5539 -110.7597 272° West 428 493 34,500 -878 Descending Albuquerque Center
Fri 12:24:43 AM 35.5597 -110.9025 273° West 435 501 33,600 -976 Descending Albuquerque Center
Fri 12:25:44 AM 35.5642 -111.0694 272° West 437 503 32,500 -984 Descending Albuquerque Center
Fri 12:26:45 AM 35.5711 -111.2161 273° West 445 512 31,600 -927 Descending Albuquerque Center
Fri 12:27:47 AM 35.5747 -111.3842 272° West 443 510 30,600 -780 Descending Albuquerque Center
Fri 12:28:48 AM 35.5786 -111.5200 272° West 454 522 30,000 -295 Descending Albuquerque Center
Fri 12:29:49 AM 35.5831 -111.6739 272° West 457 526 30,000  Level Albuquerque Center
Fri 12:30:50 AM 35.5878 -111.8586 272° West 456 525 30,000  Level Albuquerque Center
Fri 12:31:24 AM 35.5908 -111.9197 274° West 453 521 30,000  Level Los Angeles Center
Fri 12:32:26 AM 35.5981 -112.0731 273° West 454 522 30,000  Level Los Angeles Center
Fri 12:33:27 AM 35.6008 -112.2581 271° West 455 524 30,000  Level Los Angeles Center
Fri 12:34:29 AM 35.6053 -112.4136 272° West 460 529 30,000 -48 Level Los Angeles Center
Fri 12:35:31 AM 35.6089 -112.5658 272° West 454 522 29,900  Descending Los Angeles Center
Fri 12:36:32 AM 35.6111 -112.7094 271° West 430 495 30,000 49 Climbing Los Angeles Center
Fri 12:37:34 AM 35.6142 -112.8572 271° West 428 493 30,000 -290 Level Los Angeles Center
Fri 12:38:36 AM 35.6181 -113.0392 272° West 444 511 29,400 -774 Descending Los Angeles Center
Fri 12:39:38 AM 35.6200 -113.1897 271° West 441 507 28,400 -976 Descending Los Angeles Center
Fri 12:40:39 AM 35.6217 -113.3281 271° West 438 504 27,400 -976 Descending Los Angeles Center
Fri 12:41:41 AM 35.6239 -113.4733 271° West 430 495 26,400 -1,694 Descending Los Angeles Center
Fri 12:42:43 AM 35.6392 -113.6442 276° West 425 489 23,900 -2,419 Descending Los Angeles Center
Fri 12:43:45 AM 35.6586 -113.7825 280° West 414 476 21,400 -2,341 Descending Los Angeles Center
Fri 12:44:46 AM 35.6775 -113.9144 280° West 396 456 19,100 -2,098 Descending Los Angeles Center
Fri 12:45:48 AM 35.6958 -114.0444 280° West 388 447 17,100 -2,238 Descending Los Angeles Center
Fri 12:46:52 AM 35.7156 -114.1967 279° West 385 443 14,400 -2,436 Descending Los Angeles Center
Fri 12:47:29 AM 35.7278 -114.2694 282° West 374 430 13,000 -1,531 Descending Los Angeles Center
Fri 12:48:30 AM 35.7508 -114.3811 284° West 337 388 11,900 -885 Descending Los Angeles Center
Fri 12:49:31 AM 35.8164 -114.4519 319° Northwest 321 369 11,200 -1,041 Descending Los Angeles Center
Fri 12:50:31 AM 35.8819 -114.5228 319° Northwest 312 359 9,800 -1,140 Descending Los Angeles Center
Fri 12:51:32 AM 35.9419 -114.5878 319° Northwest 295 339 8,900 -738 Descending Los Angeles Center
Fri 12:52:33 AM 35.9986 -114.6483 319° Northwest 246 283 8,300 -443 Descending Los Angeles Center
Fri 12:53:34 AM 36.0503 -114.7056 318° Northwest 247 284 8,000 -492 Descending Los Angeles Center
Fri 12:54:35 AM 36.0617 -114.7869 280° West 244 281 7,300 -942 Descending Los Angeles Center
Fri 12:55:35 AM 36.0700 -114.8642 278° West 232 267 6,100 -1,121 Descending Los Angeles Center
Fri 12:56:06 AM 36.0728 -114.8969 276° West 232 267 5,600 -1,279 Descending Los Angeles Center
Fri 12:56:36 AM 36.0733 -114.9375 271° West 210 242 4,800 -1,279 Descending Los Angeles Center
Fri 12:57:07 AM 36.0747 -114.9639 274° West 215 247 4,300 -971 Descending Los Angeles Center
Fri 12:57:44 AM 36.0728 -115.0044 267° West 170 196 3,700 -804 Descending Los Angeles Center
Fri 12:58:44 AM 36.0731 -115.0547 270° West 142 163 3,000 -645 Descending Los Angeles Center
Fri 12:59:45 AM 36.0728 -115.1028 270° West 142 163 2,400 -590 Descending Los Angeles Center
Fri 01:02:00 AM 36.0667 -115.1500 270° West  Level FlightAware Approximate

Login

Don't have an account? Register now (free) for customized features, flight alerts, and more!